Weather History for Fort Lauderdale, FL

Change the Weather History Date:

Monday, December 3, 2012

  Actual Average Record
Temperature  
Mean Temperature 76 °F -  
Max Temperature 80 °F 79 °F 87 °F (1948)
Min Temperature 72 °F 62 °F 46 °F (1959)
Cooling Degree Days 11    
Growing Degree Days 26 (Base 50)    
Moisture  
Dew Point 59 °F    
Average Humidity 58    
Maximum Humidity 73    
Minimum Humidity 46    
Precipitation  
Precipitation 0.00 in - - ()
Sea Level Pressure  
Sea Level Pressure 30.20 in    
Wind  
Wind Speed 11 mph (ENE)    
Max Wind Speed 17 mph    
Max Gust Speed 24 mph    
Visibility 10 miles    
Events      
Averages and records for this station are not official NWS values.
T = Trace of Precipitation, MM = Missing Value Source: NWS Daily Summary

Daily Weather History Graph

Daily Weather History Graph

Search for Another Location

Airport:

Trip Planner

Search our weather history database for the weather conditions in past years. The results will help you decide how hot, cold, wet, or windy it might be!

Date:

Astronomy

Dec. 03, 2012 Rise Set
Actual Time 6:52 AM EST 5:28 PM EST
Civil Twilight 6:27 AM EST 5:53 PM EST
Nautical Twilight 5:59 AM EST 6:22 PM EST
Astronomical Twilight 5:31 AM EST 6:50 PM EST
Moon 9:58 PM EST (12/3) 10:28 AM EST (12/3)
Length of Visible Light 11h 25m
Length of Day
10h 35m
Waning Gibbous, 78% of the Moon is Illuminated
Dec 3
Waning Gibbous
Dec 6
Last Quarter
Dec 13
New
Dec 20
First Quarter
Dec 28
Full

Hourly Weather History & Observations

Time (EST) Temp. Heat Index Dew Point Humidity Pressure Visibility Wind Dir Wind Speed Gust Speed Precip Events Conditions
12:53 AM 73.0 °F - 64.0 °F 73% 30.19 in 10.0 mi ENE 12.7 mph - N/A   Mostly Cloudy
1:53 AM 73.0 °F - 64.0 °F 73% 30.19 in 10.0 mi ENE 8.1 mph - N/A   Scattered Clouds
2:53 AM 73.0 °F - 63.0 °F 71% 30.18 in 10.0 mi ENE 6.9 mph - N/A   Partly Cloudy
3:53 AM 73.0 °F - 64.0 °F 73% 30.17 in 10.0 mi ENE 12.7 mph - N/A   Scattered Clouds
4:53 AM 73.0 °F - 61.0 °F 66% 30.17 in 10.0 mi ENE 8.1 mph - N/A   Clear
5:53 AM 72.0 °F - 62.1 °F 71% 30.19 in 10.0 mi ENE 9.2 mph - N/A   Partly Cloudy
6:53 AM 72.0 °F - 63.0 °F 73% 30.20 in 10.0 mi ENE 9.2 mph - N/A   Scattered Clouds
7:53 AM 73.0 °F - 62.1 °F 68% 30.22 in 10.0 mi ENE 9.2 mph - N/A   Scattered Clouds
8:53 AM 73.9 °F - 62.1 °F 66% 30.24 in 10.0 mi ENE 9.2 mph - N/A   Mostly Cloudy
9:53 AM 78.8 °F - 62.6 °F 57% 30.24 in 10.0 mi ENE 13.8 mph 23.0 mph N/A   Scattered Clouds
10:53 AM 78.1 °F - 62.1 °F 58% 30.24 in 10.0 mi ENE 13.8 mph 24.2 mph N/A   Scattered Clouds
11:53 AM 80.1 °F 81.2 °F 62.1 °F 54% 30.22 in 10.0 mi ENE 17.3 mph 21.9 mph N/A   Scattered Clouds
12:53 PM 79.0 °F - 62.1 °F 56% 30.20 in 10.0 mi NE 15.0 mph - N/A   Scattered Clouds
1:53 PM 78.1 °F - 59.0 °F 52% 30.19 in 10.0 mi NE 12.7 mph 20.7 mph N/A   Scattered Clouds
2:53 PM 77.0 °F - 57.0 °F 50% 30.18 in 10.0 mi ENE 11.5 mph 19.6 mph N/A   Scattered Clouds
3:53 PM 77.0 °F - 55.0 °F 47% 30.18 in 10.0 mi NNE 10.4 mph - N/A   Scattered Clouds
4:53 PM 73.9 °F - 54.0 °F 50% 30.19 in 10.0 mi ENE 10.4 mph - N/A   Partly Cloudy
5:53 PM 72.0 °F - 51.1 °F 48% 30.20 in 10.0 mi NE 6.9 mph - N/A   Clear
6:53 PM 72.0 °F - 50.0 °F 46% 30.21 in 10.0 mi NE 6.9 mph - N/A   Clear
7:53 PM 72.0 °F - 50.0 °F 46% 30.22 in 10.0 mi NE 6.9 mph - N/A   Clear
8:53 PM 72.0 °F - 55.0 °F 55% 30.21 in 10.0 mi ENE 5.8 mph - N/A   Partly Cloudy
9:53 PM 73.0 °F - 54.0 °F 51% 30.22 in 10.0 mi ENE 16.1 mph - N/A   Partly Cloudy
10:53 PM 73.0 °F - 53.1 °F 49% 30.22 in 10.0 mi East 12.7 mph - N/A   Scattered Clouds
11:53 PM 73.0 °F - 52.0 °F 48% 30.21 in 10.0 mi ENE 13.8 mph - N/A   Scattered Clouds